KN6ZYR Weather Reports


Display with metric or nautical units.
time (UTC)temp
F
wind
direction
speed
MPH
gust
MPH
rain 1hr
in
rain 24hr
in
rain mn
in
humidity
%
barometer
mb
20260506174940 72 124 1.0 2.0 0.00 0.00 0.00 30 1023.9
20260506174438 71 232 2.0 2.0 0.00 0.00 0.00 33 1023.9
20260506173934 72 208 2.0 2.0 0.00 0.00 0.00 32 1023.8
20260506173432 72 213 0.0 1.0 0.00 0.00 0.00 32 1023.8
20260506172929 71 218 2.0 3.0 0.00 0.00 0.00 33 1024.0
20260506172426 70 195 2.0 2.0 0.00 0.00 0.00 33 1023.8
20260506171922 71 231 0.0 1.0 0.00 0.00 0.00 32 1024.0
20260506171420 71 228 1.0 2.0 0.00 0.00 0.00 33 1023.6
20260506170918 70 215 2.0 2.0 0.00 0.00 0.00 32 1024.0
20260506170414 69 218 0.0 1.0 0.00 0.00 0.00 35 1023.8
20260506165913 69 170 1.0 1.0 0.00 0.00 0.00 36 1024.0
20260506165410 68 202 1.0 1.0 0.00 0.00 0.00 34 1023.6
20260506164901 68 180 3.0 5.0 0.00 0.00 0.00 34 1023.9
20260506164357 69 196 1.0 1.0 0.00 0.00 0.00 39 1023.9
20260506163856 69 169 0.0 0.0 0.00 0.00 0.00 38 1024.1
20260506163349 68 187 0.0 0.0 0.00 0.00 0.00 42 1024.1
20260506162845 68 173 1.0 1.0 0.00 0.00 0.00 39 1023.9
20260506162343 68 112 0.0 0.0 0.00 0.00 0.00 43 1023.8
20260506161840 65 98 0.0 0.0 0.00 0.00 0.00 40 1023.8
20260506161337 64 80 1.0 1.0 0.00 0.00 0.00 42 1023.9
20260506160835 66 161 1.0 2.0 0.00 0.00 0.00 42 1023.9
20260506160331 65 158 0.0 0.0 0.00 0.00 0.00 45 1023.5
20260506155830 64 23 1.0 1.0 0.00 0.00 0.00 44 1023.8
20260506155326 63 355 0.0 0.0 0.00 0.00 0.00 44 1023.8
20260506153439 62 344 3.0 5.0 0.00 0.00 0.00 46 1023.5
20260506152936 61 300 4.0 5.0 0.00 0.00 0.00 47 1023.6
20260506152433 60 350 4.0 5.0 0.00 0.00 0.00 48 1023.5
20260506151932 59 355 1.0 2.0 0.00 0.00 0.00 50 1023.4
20260506151428 59 359 4.0 6.0 0.00 0.00 0.00 51 1023.2
20260506150926 58 304 6.0 8.0 0.00 0.00 0.00 52 1023.4
20260506150421 56 252 1.0 2.0 0.00 0.00 0.00 58 1023.4
20260506145919 53 280 3.0 3.0 0.00 0.00 0.00 61 1023.5
20260506145415 53 296 4.0 5.0 0.00 0.00 0.00 63 1023.4
20260506144913 53 301 2.0 2.0 0.00 0.00 0.00 64 1023.4
20260506144409 53 267 3.0 3.0 0.00 0.00 0.00 64 1023.2
20260506143908 54 313 3.0 3.0 0.00 0.00 0.00 60 1023.3
20260506143404 54 288 3.0 3.0 0.00 0.00 0.00 61 1023.4
20260506142902 54 301 3.0 6.0 0.00 0.00 0.00 60 1023.2
20260506142400 54 328 4.0 6.0 0.00 0.00 0.00 59 1023.1
20260506141858 53 292 2.0 3.0 0.00 0.00 0.00 59 1023.2
20260506141356 54 339 2.0 2.0 0.00 0.00 0.00 60 1023.3
20260506140854 55 342 3.0 3.0 0.00 0.00 0.00 56 1023.0
20260506140350 55 354 2.0 3.0 0.00 0.00 0.00 55 1023.0
20260506135847 54 337 4.0 5.0 0.00 0.00 0.00 58 1022.9
20260506135344 55 17 4.0 8.0 0.00 0.00 0.00 56 1022.7
20260506134840 54 320 5.0 6.0 0.00 0.00 0.00 55 1022.9
20260506134337 54 18 5.0 9.0 0.00 0.00 0.00 58 1022.4
20260506133834 54 21 7.0 9.0 0.00 0.00 0.00 57 1022.6
20260506133331 53 10 6.0 7.0 0.00 0.00 0.00 58 1022.5
20260506132827 53 355 7.0 9.0 0.00 0.00 0.00 58 1022.4
20260506132325 51 46 3.0 3.0 0.00 0.00 0.00 64 1022.3
20260506131823 51 351 2.0 2.0 0.00 0.00 0.00 67 1022.4
20260506131318 53 280 3.0 3.0 0.00 0.00 0.00 62 1022.1
20260506130816 53 312 4.0 6.0 0.00 0.00 0.00 59 1022.3
20260506130312 53 32 1.0 2.0 0.00 0.00 0.00 60 1022.2
20260506125810 53 29 1.0 2.0 0.00 0.00 0.00 61 1022.3
20260506125308 53 327 2.0 2.0 0.00 0.00 0.00 62 1021.9
20260506124807 52 33 3.0 3.0 0.00 0.00 0.00 64 1022.1
20260506124303 51 57 2.0 3.0 0.00 0.00 0.00 67 1021.9
20260506123801 49 297 1.0 2.0 0.00 0.00 0.00 74 1021.7
20260506123259 49 279 2.0 3.0 0.00 0.00 0.00 74 1021.8
20260506122755 49 293 3.0 5.0 0.00 0.00 0.00 73 1021.7
20260506122253 49 281 1.0 2.0 0.00 0.00 0.00 74 1021.7
20260506121751 49 275 1.0 2.0 0.00 0.00 0.00 73 1021.6
20260506121248 50 316 2.0 3.0 0.00 0.00 0.00 72 1021.7
20260506120745 50 294 1.0 2.0 0.00 0.00 0.00 71 1021.5
20260506120243 50 266 1.0 2.0 0.00 0.00 0.00 70 1021.4
20260506115740 50 273 1.0 2.0 0.00 0.00 0.00 71 1021.6
20260506115238 50 277 2.0 2.0 0.00 0.00 0.00 72 1021.5
20260506114736 50 281 1.0 2.0 0.00 0.00 0.00 72 1021.4
20260506114233 50 293 1.0 1.0 0.00 0.00 0.00 71 1021.3
20260506113731 50 333 3.0 3.0 0.00 0.00 0.00 72 1021.5
20260506113228 50 253 1.0 1.0 0.00 0.00 0.00 72 1021.2
20260506112724 50 305 2.0 3.0 0.00 0.00 0.00 71 1021.3
20260506112222 50 349 4.0 5.0 0.00 0.00 0.00 70 1021.6
20260506111720 51 61 0.0 0.0 0.00 0.00 0.00 69 1021.5
20260506111218 51 313 1.0 1.0 0.00 0.00 0.00 69 1021.3
20260506110714 51 312 1.0 1.0 0.00 0.00 0.00 68 1021.3
20260506110212 52 341 2.0 2.0 0.00 0.00 0.00 67 1021.4
20260506105708 52 348 4.0 6.0 0.00 0.00 0.00 66 1021.3
20260506105205 53 339 1.0 2.0 0.00 0.00 0.00 64 1021.2
20260506104704 53 330 4.0 5.0 0.00 0.00 0.00 63 1021.3
20260506104201 54 5 2.0 2.0 0.00 0.00 0.00 62 1020.9
20260506103658 53 307 3.0 3.0 0.00 0.00 0.00 63 1020.8
20260506103155 54 353 4.0 5.0 0.00 0.00 0.00 63 1020.9
20260506102653 54 313 5.0 7.0 0.00 0.00 0.00 63 1021.0
20260506102150 54 336 3.0 3.0 0.00 0.00 0.00 63 1021.0
20260506101647 54 333 3.0 3.0 0.00 0.00 0.00 64 1020.7
20260506101144 54 308 3.0 3.0 0.00 0.00 0.00 63 1020.6
20260506100642 52 331 2.0 2.0 0.00 0.00 0.00 68 1020.9
20260506100140 52 255 2.0 2.0 0.00 0.00 0.00 72 1020.7
20260506095638 52 319 2.0 3.0 0.00 0.00 0.00 72 1020.7
20260506095134 51 2 3.0 5.0 0.00 0.00 0.00 73 1021.0
20260506094632 51 332 0.0 0.0 0.00 0.00 0.00 72 1020.8
20260506094130 52 58 0.0 0.0 0.00 0.00 0.00 71 1020.9
20260506093628 52 6 2.0 2.0 0.00 0.00 0.00 69 1020.8
20260506093125 52 102 0.0 0.0 0.00 0.00 0.00 71 1020.7
20260506092623 52 102 1.0 1.0 0.00 0.00 0.00 70 1020.9
20260506092119 51 98 0.0 1.0 0.00 0.00 0.00 71 1020.7
20260506091617 51 93 0.0 1.0 0.00 0.00 0.00 72 1021.0
20260506091115 52 93 0.0 0.0 0.00 0.00 0.00 72 1020.8
20260506090613 52 93 0.0 1.0 0.00 0.00 0.00 71 1020.7
20260506090108 51 1 0.0 0.0 0.00 0.00 0.00 72 1020.9
20260506085605 52 356 1.0 2.0 0.00 0.00 0.00 71 1020.7
20260506085102 52 278 0.0 0.0 0.00 0.00 0.00 70 1020.7
20260506084559 53 278 1.0 1.0 0.00 0.00 0.00 70 1020.9
20260506084055 53 288 0.0 0.0 0.00 0.00 0.00 67 1020.6
20260506083552 53 314 2.0 2.0 0.00 0.00 0.00 66 1020.9
20260506083050 53 16 1.0 1.0 0.00 0.00 0.00 67 1020.6
20260506082546 53 337 2.0 2.0 0.00 0.00 0.00 69 1020.7
20260506082042 53 346 2.0 2.0 0.00 0.00 0.00 68 1020.6
20260506081540 53 347 1.0 1.0 0.00 0.00 0.00 66 1020.5
20260506081037 54 326 1.0 3.0 0.00 0.00 0.00 66 1020.5
20260506080535 55 284 2.0 3.0 0.00 0.00 0.00 58 1020.6
20260506073519 54 345 4.0 5.0 0.00 0.00 0.00 61 1020.7
20260506073015 54 356 1.0 2.0 0.00 0.00 0.00 66 1020.6
20260506072512 54 285 3.0 5.0 0.00 0.00 0.00 66 1020.6
20260506072010 54 244 1.0 2.0 0.00 0.00 0.00 67 1020.6
20260506071508 54 270 2.0 2.0 0.00 0.00 0.00 67 1020.4
20260506071005 53 303 1.0 1.0 0.00 0.00 0.00 69 1020.1
20260506070502 53 316 2.0 2.0 0.00 0.00 0.00 71 1020.4
20260506062439 52 311 0.0 0.0 0.00 0.12 0.12 70 1020.0
20260506061935 52 355 1.0 2.0 0.00 0.12 0.12 70 1020.0
20260506061432 52 275 0.0 0.0 0.00 0.12 0.12 70 1020.1
20260506060930 52 275 0.0 0.0 0.00 0.12 0.12 69 1020.0
20260506060428 52 273 0.0 1.0 0.00 0.12 0.12 70 1020.1
20260506051400 53 263 0.0 0.0 0.00 0.12 0.12 68 1019.3
20260506050857 53 263 0.0 0.0 0.00 0.12 0.12 67 1019.6
20260506050354 53 263 2.0 2.0 0.00 0.12 0.12 68 1019.5
20260506044845 54 316 2.0 3.0 0.00 0.12 0.12 65 1019.5
20260506044343 53 244 1.0 2.0 0.00 0.12 0.12 67 1019.2
20260506043839 54 264 1.0 1.0 0.00 0.12 0.12 68 1019.1
20260506043337 54 266 1.0 1.0 0.00 0.12 0.12 68 1019.0
20260506042835 55 265 1.0 1.0 0.00 0.12 0.12 67 1019.0
20260506042334 55 269 1.0 1.0 0.00 0.12 0.12 67 1019.0
20260506041832 55 310 4.0 5.0 0.00 0.12 0.12 65 1018.5
20260506041329 55 302 3.0 3.0 0.00 0.12 0.12 64 1018.8
20260506040826 55 343 4.0 5.0 0.00 0.12 0.12 63 1018.8
20260506040323 55 344 3.0 3.0 0.00 0.12 0.12 66 1018.7
20260506035819 55 285 5.0 6.0 0.00 0.12 0.12 67 1018.4
20260506035317 55 279 1.0 2.0 0.00 0.12 0.12 65 1018.4
20260506034814 56 297 2.0 2.0 0.00 0.12 0.12 64 1018.4
20260506034311 56 275 2.0 3.0 0.00 0.12 0.12 63 1018.2
20260506033808 56 270 1.0 2.0 0.00 0.12 0.12 61 1018.0
20260506033305 56 286 4.0 5.0 0.00 0.12 0.12 62 1018.0
20260506032802 57 268 2.0 5.0 0.00 0.12 0.12 62 1018.0
20260506032259 57 304 5.0 6.0 0.00 0.12 0.12 60 1017.9
20260506031755 57 291 4.0 5.0 0.00 0.12 0.12 59 1018.0
20260506031253 57 292 6.0 8.0 0.00 0.12 0.12 57 1017.6
20260506030751 58 293 5.0 6.0 0.00 0.12 0.12 55 1017.6
20260506030248 58 289 3.0 3.0 0.00 0.12 0.12 54 1017.4
20260506025745 59 318 3.0 3.0 0.00 0.12 0.12 53 1017.2
20260506025241 59 327 3.0 3.0 0.00 0.12 0.12 53 1017.3
20260506024738 59 331 3.0 3.0 0.00 0.12 0.12 51 1017.2
20260506024235 60 279 3.0 5.0 0.00 0.12 0.12 50 1017.2
20260506023731 60 303 2.0 2.0 0.00 0.12 0.12 50 1017.1
20260506023228 60 301 1.0 2.0 0.00 0.12 0.12 49 1016.8
20260506022725 60 322 3.0 5.0 0.00 0.12 0.12 49 1016.7
20260506022223 61 309 5.0 7.0 0.00 0.12 0.12 48 1017.0
20260506021721 61 304 1.0 2.0 0.00 0.12 0.12 46 1016.7
20260506021218 61 2 5.0 7.0 0.00 0.12 0.12 44 1016.8
20260506020714 61 251 2.0 2.0 0.00 0.12 0.12 46 1016.8
20260506020212 61 350 3.0 3.0 0.00 0.12 0.12 45 1016.6
20260506015709 61 327 4.0 5.0 0.00 0.12 0.12 44 1017.0
20260506015207 61 296 7.0 9.0 0.00 0.12 0.12 43 1016.7
20260506014704 62 346 8.0 10.0 0.00 0.12 0.12 42 1016.7
20260506014159 62 340 5.0 8.0 0.00 0.12 0.12 40 1016.6
20260506013657 62 256 6.0 8.0 0.00 0.12 0.12 40 1016.7
20260506013154 63 9 9.0 11.0 0.00 0.12 0.12 39 1016.7
20260506012650 63 1 10.0 11.0 0.00 0.12 0.12 38 1016.4
20260506012147 63 2 5.0 7.0 0.00 0.12 0.12 38 1016.3
20260506011639 63 26 6.0 8.0 0.00 0.12 0.12 39 1016.3
20260506011136 64 302 7.0 13.0 0.00 0.12 0.12 38 1016.4
20260506010635 64 27 8.0 13.0 0.00 0.12 0.12 38 1016.3
20260506010131 64 317 7.0 8.0 0.00 0.12 0.12 38 1016.2
20260506005628 65 14 5.0 8.0 0.00 0.12 0.12 37 1016.0
20260506005124 65 359 8.0 9.0 0.00 0.12 0.12 36 1016.0
20260506004621 65 52 8.0 10.0 0.00 0.12 0.12 36 1015.9
20260506004118 65 345 5.0 8.0 0.00 0.12 0.12 36 1016.0
20260506003614 65 333 5.0 7.0 0.00 0.12 0.12 36 1016.0
20260506003110 65 26 8.0 10.0 0.00 0.12 0.12 37 1015.8
20260506002606 66 352 5.0 7.0 0.00 0.12 0.12 36 1015.8
20260506002102 67 17 6.0 7.0 0.00 0.12 0.12 36 1015.7
20260506001559 67 309 3.0 5.0 0.00 0.12 0.12 35 1015.7
20260506001056 67 264 1.0 1.0 0.00 0.12 0.12 32 1015.6
20260506000553 67 293 4.0 5.0 0.00 0.12 0.12 32 1015.7
20260506000051 67 266 3.0 3.0 0.00 0.12 0.12 32 1015.7
20260505235548 67 0 2.0 2.0 0.00 0.12 0.12 32 1015.6
20260505235045 68 295 5.0 6.0 0.00 0.12 0.12 31 1015.5
20260505234542 67 243 2.0 2.0 0.00 0.12 0.12 31 1015.1
20260505234039 67 26 2.0 3.0 0.00 0.12 0.12 31 1015.4
20260505233536 68 19 1.0 2.0 0.00 0.12 0.12 31 1015.5
20260505233034 67 111 0.0 0.0 0.00 0.12 0.12 36 1015.6
20260505232531 68 107 0.0 1.0 0.00 0.12 0.12 35 1015.7
20260505232029 67 327 0.0 1.0 0.00 0.12 0.12 34 1015.4
20260505231525 66 206 3.0 3.0 0.00 0.12 0.12 36 1015.8
20260505231024 67 227 2.0 2.0 0.00 0.12 0.12 37 1015.6
20260505230521 68 249 1.0 2.0 0.00 0.12 0.12 36 1016.0
20260505230018 68 250 2.0 2.0 0.00 0.12 0.12 34 1015.8
20260505225514 67 311 0.0 1.0 0.00 0.12 0.12 35 1015.7
20260505225010 67 27 3.0 5.0 0.00 0.12 0.12 36 1015.9
20260505224508 67 280 1.0 3.0 0.00 0.12 0.12 39 1015.9
20260505224005 65 152 1.0 2.0 0.00 0.12 0.12 39 1016.2
20260505223502 66 82 1.0 2.0 0.00 0.12 0.12 36 1015.9
20260505222958 66 308 2.0 2.0 0.00 0.12 0.12 39 1016.3
20260505222455 65 90 1.0 2.0 0.00 0.12 0.12 39 1016.3
20260505221950 66 340 1.0 2.0 0.00 0.12 0.12 41 1016.2
20260505221448 67 202 0.0 0.0 0.00 0.12 0.12 44 1016.4
20260505220945 65 143 5.0 6.0 0.00 0.12 0.12 39 1016.3
20260505220441 64 216 1.0 1.0 0.00 0.12 0.12 38 1016.4
20260505215939 64 319 5.0 6.0 0.00 0.12 0.12 42 1016.5
20260505215437 66 216 0.0 1.0 0.00 0.12 0.12 40 1016.4
20260505214935 65 216 1.0 1.0 0.00 0.12 0.12 42 1016.6
20260505214432 65 192 0.0 1.0 0.00 0.12 0.12 43 1016.5
20260505213929 64 172 1.0 2.0 0.00 0.12 0.12 44 1016.7
20260505213427 64 227 2.0 2.0 0.00 0.12 0.12 45 1016.8
20260505212923 64 248 2.0 3.0 0.00 0.12 0.12 46 1016.8
20260505212420 63 27 3.0 3.0 0.00 0.12 0.12 46 1016.7
20260505211916 62 315 4.0 5.0 0.00 0.12 0.12 44 1017.0
20260505211414 63 118 1.0 2.0 0.00 0.12 0.12 45 1017.2
20260505210910 62 142 3.0 3.0 0.00 0.12 0.12 45 1016.8
20260505210408 63 185 1.0 1.0 0.00 0.12 0.12 45 1017.1
20260505205904 63 196 0.0 1.0 0.00 0.12 0.12 44 1016.8
20260505205403 62 178 2.0 2.0 0.00 0.12 0.12 49 1017.1
20260505204859 62 234 4.0 5.0 0.00 0.12 0.12 43 1017.2
20260505204357 63 239 4.0 5.0 0.00 0.12 0.12 46 1017.1
20260505203854 62 196 2.0 3.0 0.00 0.12 0.12 46 1017.2
20260505203350 64 205 4.0 6.0 0.00 0.12 0.12 45 1017.2
20260505202847 63 196 1.0 1.0 0.00 0.12 0.12 52 1017.0
20260505202343 62 266 0.0 1.0 0.00 0.12 0.12 57 1017.0
20260505201840 63 58 3.0 3.0 0.00 0.12 0.12 46 1017.1
20260505201337 62 185 0.0 0.0 0.00 0.12 0.12 56 1017.1
20260505200836 60 25 2.0 2.0 0.00 0.12 0.12 51 1017.3
20260505200332 60 31 1.0 1.0 0.00 0.12 0.12 51 1017.3
20260505195827 62 8 3.0 3.0 0.00 0.12 0.12 54 1017.5
20260505195325 61 174 2.0 2.0 0.00 0.12 0.12 52 1017.9
20260505194822 60 221 1.0 2.0 0.00 0.12 0.12 50 1017.7
20260505194319 59 330 3.0 5.0 0.00 0.12 0.12 54 1017.6
20260505193814 60 74 0.0 1.0 0.00 0.12 0.12 55 1017.5
20260505193312 59 355 1.0 2.0 0.00 0.12 0.12 55 1017.6
20260505192810 60 73 0.0 0.0 0.00 0.12 0.12 57 1017.7
20260505192310 60 124 2.0 3.0 0.00 0.12 0.12 55 1018.0
20260505191806 58 16 1.0 1.0 0.00 0.12 0.12 54 1017.7
20260505191304 58 22 2.0 2.0 0.00 0.12 0.12 57 1017.6
20260505190800 59 96 2.0 2.0 0.00 0.12 0.12 54 1017.5
20260505190255 59 110 1.0 2.0 0.00 0.12 0.12 54 1017.6
20260505185752 59 144 2.0 3.0 0.00 0.12 0.12 53 1017.9
20260505185248 57 143 1.0 1.0 0.00 0.12 0.12 56 1018.0
20260505184744 58 111 1.0 2.0 0.00 0.12 0.12 58 1017.9
20260505184242 57 116 0.0 0.0 0.00 0.12 0.12 57 1017.7
20260505183738 56 104 2.0 3.0 0.00 0.12 0.12 59 1017.4
20260505183236 56 86 2.0 2.0 0.00 0.12 0.12 56 1017.7
20260505182732 57 121 0.0 1.0 0.00 0.12 0.12 55 1017.9
20260505182229 56 3 2.0 2.0 0.00 0.12 0.12 62 1017.6
20260505181725 57 108 1.0 1.0 0.00 0.12 0.12 59 1017.6
20260505181223 57 119 1.0 1.0 0.00 0.12 0.12 60 1017.4
20260505180719 56 105 3.0 3.0 0.00 0.12 0.12 60 1017.5
20260505180216 57 126 1.0 1.0 0.00 0.12 0.12 57 1017.5
20260505175712 57 162 1.0 2.0 0.00 0.12 0.12 60 1017.3
20260505175209 56 197 0.0 0.0 0.00 0.12 0.12 57 1017.3